sat.trackr.live / text

‹ back to catalog

STARLINK-34494

NORAD 64611 · 2025-137T

PAYLOAD ACTIVE UNKNOWN

§ Identity

Operator
Country
US
Launch date
2025-06-25
Launch site
AFETR
Launch vehicle
Mass (kg)
RCS (m²)

Purposes: comms

External: N2YO · Heavens-Above · Gunter

§ Orbital elements

Epoch: 2026-09-20T23:06:10.738656Z

Period
93.85 min
Inclination
53.1551°
Eccentricity
0.0001186
Mean motion
15.34414908 rev/d
Perigee alt
461.8 km
Apogee alt
463.5 km
Semi-major
6,840.8 km
B*
6.9477e-4
RAAN
145.2622°
Arg perigee
103.1501°
Mean anomaly
256.9634°
Rev number
7,067

§ Raw data

STARLINK-344941 64611U 25137T   26263.96262429  .00023181  00000+0  69477-3 0  99952 64611  53.1551 145.2622 0001186 103.1501 256.9634 15.34414908 70673

JSON: /api/v1/satellites/64611 · /tle

For live sub-satellite position, see the globe view (requires WebGL).

§ Visibility from observer

Set your observer location to see the next 7 days of passes ≥ 10°. The values pass through the URL so the page stays shareable.

No JS? Fill the form by hand. The geolocation button needs JavaScript.